Temperature
24 23 23 23 22 22 21 21 21 21 21 21 20 20 19 18 18 17 17 17 16 15 15 15 14 13 13 13 12 12 11 11 11 11 11 11 11 11 11 11 11 12 12 12
24 23 23 23 23 22 22 22 21 21 21 22 20 20 19 19 18 18 17 17 16 16 15 15 15 14 13 13 12 12 11 11 11 11 11 11 11 11 11 11 11 11 12 12
24 24 23 23 24 23 22 22 22 21 22 21 21 20 20 19 18 18 17 16 16 16 15 15 15 14 14 13 13 12 11 11 11 11 11 11 11 11 11 11 11 11 11 11
24 24 23 24 25 24 23 23 23 23 22 22 21 20 19 19 19 18 17 16 16 15 15 15 15 14 14 13 13 12 11 11 11 11 11 11 11 11 11 11 11 11 11 11
24 24 25 23 24 24 23 23 24 23 22 22 21 20 19 19 18 18 17 16 16 15 15 15 14 14 14 14 13 12 11 11 11 11 11 11 11 11 10 11 11 11 11 11
23 23 24 24 24 24 23 22 24 23 23 22 21 19 20 19 18 18 17 16 16 15 15 15 14 14 14 14 13 12 11 11 11 11 11 11 11 10 10 10 10 11 11 11
22 23 25 24 23 23 22 23 24 23 23 22 21 20 20 19 18 17 17 16 16 15 15 15 14 14 14 13 13 12 11 11 11 11 11 11 11 11 10 10 10 10 11 11
23 23 24 23 22 23 24 24 23 23 22 22 21 20 20 19 18 17 17 16 16 15 15 15 14 14 14 13 13 12 11 11 11 11 11 11 11 11 11 10 10 10 10 10
25 25 24 23 23 24 24 24 23 23 22 21 21 20 19 19 18 17 17 16 16 16 15 15 14 14 14 13 13 12 12 12 11 11 11 11 11 11 11 11 10 10 10 10
25 25 25 24 24 24 23 23 23 22 22 21 21 20 19 19 18 18 17 16 16 16 16 15 15 14 14 13 13 13 12 12 12 11 11 11 11 11 11 11 11 10 10 10
25 25 25 25 24 23 23 22 22 22 21 21 20 20 19 19 18 18 17 17 16 16 16 16 15 14 14 14 13 13 13 13 12 12 11 11 11 11 11 11 11 11 11 11
24 26 26 26 24 23 23 22 22 21 21 20 20 20 19 19 19 18 18 17 16 16 16 16 15 15 14 14 14 13 13 13 13 12 12 11 11 11 11 11 11 11 11 11
26 26 25 25 24 23 22 22 21 21 21 20 20 20 19 19 19 18 18 17 17 16 16 16 15 15 15 14 14 13 13 13 13 12 12 12 11 11 11 11 11 11 11 11
25 24 24 24 23 23 22 22 21 20 20 20 20 19 19 19 19 18 18 17 17 16 16 16 15 15 15 14 14 14 13 13 13 12 12 12 12 11 11 11 11 11 11 11
24 23 23 23 23 22 22 22 21 20 20 20 19 19 19 19 18 18 18 17 17 16 16 16 15 15 15 14 14 14 13 13 13 13 12 12 12 12 12 12 11 11 11 11
22 23 22 22 22 22 22 21 21 21 20 20 19 19 19 18 18 18 17 17 17 16 16 16 15 15 15 15 14 14 13 13 13 13 12 12 12 12 12 12 12 12 12 11
19 20 20 21 21 21 21 21 21 21 20 20 20 19 19 18 18 18 17 17 17 16 16 16 15 15 15 14 14 14 13 13 13 13 13 12 12 12 12 12 12 12 12 12
17 17 18 19 20 20 21 21 21 20 20 20 20 19 19 18 18 17 17 17 16 16 16 16 15 15 15 14 14 14 13 13 13 13 13 13 12 12 12 12 12 12 12 12
15 16 16 17 18 19 20 20 20 20 20 20 20 19 19 18 18 17 17 17 16 16 16 16 15 15 15 14 14 14 14 13 13 13 13 13 12 12 12 12 12 12 12 12
13 14 14 15 16 17 18 19 20 20 20 20 20 19 19 18 18 17 17 17 16 16 16 16 15 15 15 14 14 14 14 13 13 13 13 13 12 12 12 12 12 12 12 12
11 12 13 13 14 16 16 17 18 19 19 19 19 19 19 18 18 17 17 17 16 16 16 16 15 15 15 14 14 14 14 13 13 13 13 13 12 12 12 12 12 12 12 12
10 11 11 12 13 14 15 16 17 18 18 19 19 19 18 18 18 17 17 17 16 16 16 16 15 15 15 14 14 14 14 14 13 13 13 13 13 12 12 12 12 12 12 12
9 10 10 11 12 12 14 15 15 16 17 17 18 18 18 17 17 17 17 17 16 16 16 15 15 15 15 14 14 14 14 14 13 13 13 13 13 13 12 12 12 12 12 12
8 9 9 9 10 11 12 12 13 14 15 16 16 16 17 17 17 17 17 16 16 16 15 15 15 15 15 14 14 14 14 14 14 13 13 13 13 13 13 12 12 12 12 12
7 8 8 8 8 9 9 10 11 12 13 14 14 15 15 15 16 16 16 16 16 15 15 15 15 15 14 14 14 14 14 14 13 13 13 13 13 13 13 13 12 12 12 12
7 7 7 7 7 7 8 8 9 9 10 11 12 12 13 14 14 14 15 15 15 15 15 14 14 14 14 14 14 14 13 13 13 13 13 13 13 13 13 13 13 13 12 12
6 6 6 6 6 6 6 7 7 7 8 9 9 10 11 11 12 12 13 13 13 13 13 13 14 14 14 14 14 13 13 13 13 13 13 13 13 13 13 12 12 12 12 12
Wind_Speed
2 1 1 2 3 4 5 5 4 3 1 2 4 3 2 2 1 2 3 5 5 4 4 3 4 5 5 5 6 7 7 8 8 9 9 8 9 9 9 9 10 9 9 10
3 4 4 6 7 7 7 6 6 4 3 5 6 4 3 3 2 1 3 4 5 5 5 5 4 4 4 5 5 6 7 7 7 8 8 8 8 9 9 9 9 9 9 10
4 6 5 8 9 11 8 6 6 6 3 8 7 5 3 2 2 2 2 3 4 5 5 5 5 5 5 5 6 7 7 7 7 8 8 8 9 8 8 8 8 9 9 9
5 4 5 3 4 5 8 9 8 5 4 7 6 5 4 3 2 3 3 3 4 4 4 4 4 4 4 5 6 7 6 7 7 7 8 8 8 8 7 7 7 7 7 8
4 6 4 6 5 5 6 7 10 9 8 8 7 6 6 6 4 3 4 4 3 2 2 3 4 4 4 5 6 6 6 6 6 6 7 7 8 8 7 6 6 6 6 8
4 4 3 6 8 6 3 5 9 11 10 10 10 7 6 9 7 5 5 4 2 1 2 3 3 3 3 6 7 6 5 5 5 5 5 6 7 6 5 5 5 5 6 7
6 6 2 8 9 7 3 2 5 9 10 12 11 5 7 10 8 7 5 4 1 1 1 2 3 3 4 6 6 5 5 4 4 4 4 5 5 5 5 5 5 5 6 6
5 5 1 11 9 6 3 4 4 6 9 10 8 8 8 9 8 7 6 5 2 1 0 1 2 2 3 4 4 4 3 3 3 4 4 5 4 5 5 5 5 6 6 6
2 1 6 8 7 6 3 1 4 6 7 9 9 9 9 9 9 8 7 6 4 3 2 2 2 1 2 3 3 2 2 1 1 2 2 3 4 5 5 5 5 5 5 5
4 4 5 10 9 7 6 4 4 6 7 9 9 9 9 9 9 8 7 6 5 5 4 3 3 2 2 2 2 2 2 2 2 2 3 4 4 4 5 5 5 5 5 5
6 7 5 6 9 9 7 6 6 6 7 9 9 10 10 9 9 8 8 6 5 5 4 3 4 4 4 3 2 3 3 3 3 3 2 2 3 2 3 4 3 3 4 4
5 4 2 2 6 8 9 9 8 8 9 9 9 9 10 9 8 8 8 8 7 6 5 4 4 4 5 4 3 4 1 1 2 3 3 2 2 2 3 2 3 4 4 3
7 5 4 3 0 5 9 9 9 9 9 9 10 9 10 8 8 8 8 9 8 8 6 5 4 4 5 6 5 4 2 1 1 1 2 2 2 2 3 2 1 0 0 2
4 4 5 4 4 5 7 9 10 11 10 10 9 9 9 9 8 9 9 9 8 7 7 6 5 5 5 5 5 4 3 2 2 2 2 2 2 2 2 3 3 3 4 4
5 5 6 6 5 5 6 7 9 10 11 11 10 10 10 10 9 9 9 8 8 8 7 7 6 6 5 4 4 4 4 3 3 3 3 3 2 2 2 2 2 3 4 3
9 6 5 6 7 7 7 8 10 11 11 11 11 11 11 10 9 9 9 9 9 9 8 8 7 6 7 6 4 3 3 3 3 2 3 4 4 4 3 3 3 2 3 4
11 9 8 7 8 9 9 10 10 10 11 12 11 11 11 11 10 10 9 9 9 8 8 8 7 6 7 6 5 4 4 5 8 4 4 4 4 4 3 3 3 3 2 4
12 12 11 11 10 9 10 10 11 10 10 11 11 11 12 12 12 11 10 9 9 9 8 8 8 8 8 7 6 5 4 4 5 6 5 5 4 4 4 4 4 4 4 5
16 15 15 14 13 12 11 10 9 10 10 9 11 12 12 12 11 10 10 11 11 11 10 9 10 9 8 9 8 5 5 5 5 5 5 5 5 4 4 5 5 5 5 5
16 16 16 15 14 12 12 11 9 8 8 9 10 11 12 12 11 11 11 11 10 9 9 10 10 9 8 9 10 6 6 6 5 5 5 5 5 5 5 6 5 5 5 5
17 17 17 16 15 14 12 12 10 8 7 8 9 10 11 11 11 11 10 10 9 10 10 11 9 8 8 8 12 7 7 6 6 5 5 4 5 5 5 5 5 5 5 5
16 16 17 16 15 15 13 12 11 9 7 6 7 8 8 9 10 11 11 8 8 12 10 8 7 9 11 10 8 8 7 7 6 5 5 5 5 5 5 5 5 4 5 5
14 15 16 16 16 14 14 13 13 10 8 6 5 6 7 7 6 7 7 7 7 12 10 8 10 14 15 9 8 8 8 8 7 6 6 5 5 5 5 6 5 4 4 4
13 14 14 15 15 15 15 15 14 12 10 8 6 5 5 4 4 5 5 9 13 14 9 10 15 16 15 9 7 8 8 8 7 7 6 6 5 5 5 5 5 4 4 5
12 12 13 13 12 11 13 14 14 13 13 10 10 9 6 3 3 3 3 5 10 12 9 11 16 17 12 8 8 8 8 8 7 7 7 6 6 6 5 5 4 4 4 5
10 9 9 10 9 8 9 10 10 10 11 11 10 10 9 7 5 4 2 1 6 8 7 6 9 11 9 8 8 8 8 8 9 8 7 7 7 7 6 6 7 6 5 5
10 8 7 7 7 7 8 8 9 9 10 10 11 10 10 9 8 6 5 3 1 3 3 4 5 7 8 7 7 7 7 6 7 7 7 7 7 6 6 7 6 5 5 5
Wind_Direction
73 30 334 267 236 230 257 294 317 19 35 155 136 142 146 155 95 25 30 24 31 31 23 27 45 39 30 24 30 36 38 29 18 18 19 18 17 20 21 20 24 24 28 30
213 201 240 254 238 231 240 252 262 270 258 125 129 155 178 164 130 62 40 29 24 26 20 21 43 51 42 39 40 45 45 33 19 21 19 16 20 22 21 22 24 29 31 32
259 171 246 257 221 212 218 219 231 243 197 142 163 179 184 157 149 121 70 45 33 21 20 14 29 44 45 46 49 49 44 39 27 25 21 16 18 22 23 26 27 31 31 31
283 222 262 101 101 175 214 225 220 228 162 163 174 164 171 178 165 128 104 72 51 20 8 3 25 38 47 66 63 57 43 38 36 28 21 16 16 18 22 26 30 32 31 29
283 294 269 144 158 172 208 239 217 213 192 177 167 176 192 177 152 116 103 90 70 354 343 17 23 19 26 59 66 59 47 43 38 30 22 19 16 14 18 23 28 32 32 34
289 286 311 109 130 144 203 260 204 194 189 178 179 208 190 161 155 144 123 113 107 294 6 30 19 5 25 59 63 54 45 48 41 32 28 25 15 11 14 22 26 35 41 43
265 275 302 118 129 146 211 2 137 177 181 181 194 204 146 150 150 142 138 137 170 282 35 23 360 3 43 62 66 60 47 45 35 25 37 39 16 7 14 20 28 39 48 51
221 251 235 138 153 195 234 113 162 183 180 182 178 154 141 141 141 148 154 160 179 261 11 57 12 7 68 80 86 92 80 64 50 38 28 32 17 11 16 17 29 35 40 45
265 347 119 173 198 226 274 224 178 190 183 177 176 167 159 157 159 166 170 168 174 217 234 186 135 36 70 107 107 123 131 126 105 88 75 35 15 21 21 21 28 31 33 36
290 274 199 202 221 227 232 235 202 193 185 181 184 177 173 176 175 172 174 172 178 212 230 192 152 150 127 123 170 208 190 169 136 82 70 61 34 28 38 27 22 21 24 28
259 267 254 211 211 221 218 216 211 200 193 191 190 189 184 188 185 176 171 171 180 209 227 206 172 173 158 167 230 242 218 180 144 126 107 85 87 51 55 71 66 35 17 19
253 285 280 260 192 206 213 210 210 206 202 197 196 196 192 193 186 176 173 171 183 207 224 219 188 181 164 167 232 263 271 92 117 143 147 162 156 133 66 93 116 89 66 56
269 319 337 3 123 206 214 211 207 210 208 202 201 200 200 196 185 180 181 181 188 199 210 217 197 196 174 171 213 247 234 197 180 175 163 194 199 187 178 186 217 281 98 79
340 328 288 269 244 230 227 214 209 211 212 207 203 201 201 201 195 190 192 189 188 194 198 204 203 205 193 181 194 226 227 196 193 185 206 225 220 227 210 181 189 203 212 215
306 281 277 290 278 235 228 218 212 212 211 209 204 203 202 204 204 198 195 189 183 192 203 207 207 203 186 183 200 219 219 201 196 197 209 222 221 230 234 221 213 182 157 187
323 301 280 279 278 264 240 229 224 219 213 210 207 205 205 206 205 197 192 191 188 194 203 209 211 199 176 179 202 220 224 204 190 213 229 227 221 223 227 226 227 206 169 168
344 331 315 290 271 263 253 243 237 230 221 215 210 206 204 204 204 202 197 193 192 196 201 205 203 188 173 177 193 211 218 199 193 215 238 241 234 228 229 224 216 206 178 158
346 335 326 316 304 285 265 251 243 237 230 220 209 205 205 207 207 204 198 192 192 200 209 207 193 185 179 182 194 212 226 214 195 208 219 229 237 236 235 233 229 215 184 173
353 345 338 329 319 307 295 277 256 239 231 223 213 210 209 210 207 203 200 198 199 204 204 203 204 193 184 187 190 201 226 235 223 218 213 215 218 232 240 240 234 225 206 182
355 350 344 336 328 317 307 299 283 258 234 223 219 214 211 210 205 203 204 207 205 197 188 193 195 193 193 188 183 196 217 234 235 227 221 218 217 226 232 231 227 226 224 209
355 352 348 343 336 329 320 310 298 280 256 230 224 222 217 211 206 204 204 212 202 183 183 191 191 186 192 185 179 194 209 226 232 229 227 225 228 234 238 239 231 223 222 220
352 350 348 345 341 336 332 324 315 303 284 258 236 230 224 216 210 209 206 199 187 180 180 182 187 188 188 180 179 192 203 219 228 227 225 226 230 237 242 246 243 235 227 222
349 350 350 348 344 340 341 341 334 324 313 294 267 245 236 227 212 208 212 193 180 180 183 187 189 191 188 182 182 190 201 213 221 223 222 221 225 231 236 242 242 241 238 231
343 345 347 348 349 351 349 347 343 341 338 329 318 298 267 242 231 217 206 189 186 180 186 191 189 190 187 192 192 195 203 210 214 216 219 221 225 231 236 236 234 234 237 240
334 336 340 344 348 349 345 345 348 352 352 349 344 337 325 305 267 231 204 184 181 176 185 190 189 187 190 199 200 203 205 208 210 209 211 215 221 226 233 237 235 234 235 236
321 323 326 329 336 341 343 347 350 354 356 353 348 349 348 349 358 8 7 142 162 177 184 182 185 191 200 205 209 210 207 206 209 211 212 213 218 219 221 226 235 233 234 235
309 311 313 319 330 341 342 344 348 350 355 352 343 345 349 353 359 2 0 4 114 176 196 198 192 193 200 205 212 216 214 209 202 199 203 209 214 219 221 222 221 224 228 232
Height
1536 1537 1537 1539 1541 1543 1546 1545 1547 1545 1545 1544 1546 1549 1551 1552 1553 1553 1553 1552 1551 1550 1548 1546 1544 1542 1539 1537 1534 1531 1528 1525 1522 1520 1517 1515 1512 1510 1507 1505 1503 1501 1499 1497
1536 1536 1537 1539 1538 1540 1542 1542 1543 1543 1543 1541 1545 1548 1549 1551 1552 1552 1552 1552 1551 1550 1548 1547 1545 1542 1540 1538 1536 1533 1530 1527 1525 1522 1520 1517 1515 1512 1510 1508 1506 1504 1502 1500
1534 1533 1537 1537 1529 1534 1537 1536 1539 1542 1540 1540 1544 1546 1548 1549 1550 1551 1552 1552 1551 1550 1549 1547 1546 1543 1541 1539 1537 1534 1532 1529 1527 1524 1522 1520 1517 1515 1513 1511 1509 1507 1505 1503
1534 1535 1544 1532 1521 1524 1529 1531 1532 1534 1535 1538 1541 1544 1547 1548 1549 1550 1551 1551 1551 1550 1549 1548 1546 1544 1542 1540 1538 1535 1533 1531 1529 1526 1524 1522 1520 1517 1515 1514 1512 1510 1508 1507
1533 1536 1527 1528 1523 1525 1530 1530 1528 1530 1533 1537 1540 1543 1545 1546 1548 1549 1550 1550 1550 1549 1549 1548 1546 1545 1543 1541 1539 1537 1535 1533 1531 1528 1526 1524 1522 1520 1518 1517 1515 1513 1511 1510
1536 1542 1536 1526 1521 1523 1529 1531 1522 1525 1530 1534 1538 1542 1542 1543 1546 1548 1549 1549 1549 1549 1548 1548 1547 1545 1544 1542 1540 1538 1536 1534 1532 1530 1529 1526 1524 1523 1521 1519 1518 1516 1515 1513
1542 1539 1523 1521 1522 1526 1536 1528 1520 1523 1527 1531 1534 1537 1539 1541 1544 1546 1547 1548 1548 1548 1548 1547 1546 1545 1544 1542 1541 1539 1537 1536 1534 1532 1531 1529 1527 1525 1524 1522 1521 1520 1518 1517
1532 1537 1531 1521 1523 1525 1524 1521 1522 1523 1525 1529 1533 1536 1538 1540 1542 1544 1546 1546 1547 1547 1547 1546 1546 1545 1544 1542 1541 1540 1538 1537 1536 1534 1533 1531 1530 1528 1526 1525 1524 1522 1521 1520
1520 1523 1518 1518 1519 1519 1519 1520 1521 1522 1525 1527 1531 1533 1536 1539 1541 1543 1544 1545 1545 1546 1546 1546 1545 1545 1544 1543 1542 1541 1540 1538 1537 1536 1534 1533 1532 1530 1528 1527 1526 1525 1523 1522
1517 1513 1513 1514 1515 1517 1518 1518 1520 1521 1523 1525 1528 1531 1534 1537 1539 1540 1542 1543 1544 1544 1545 1545 1544 1544 1543 1542 1541 1541 1540 1539 1538 1537 1536 1534 1533 1532 1530 1529 1527 1526 1525 1524
1515 1512 1511 1510 1511 1513 1515 1516 1518 1519 1521 1523 1526 1528 1531 1534 1536 1538 1539 1541 1541 1542 1543 1543 1543 1542 1542 1541 1541 1541 1540 1540 1539 1538 1537 1535 1534 1533 1532 1531 1529 1528 1526 1525
1513 1507 1507 1507 1508 1509 1511 1513 1515 1517 1518 1520 1523 1525 1528 1530 1532 1534 1536 1537 1539 1540 1541 1541 1541 1541 1540 1540 1540 1540 1540 1540 1539 1538 1537 1536 1535 1534 1533 1532 1531 1529 1528 1527
1506 1506 1506 1506 1507 1507 1508 1509 1511 1513 1515 1517 1519 1522 1524 1527 1529 1531 1533 1534 1535 1536 1538 1538 1539 1539 1539 1538 1538 1538 1538 1538 1538 1537 1537 1536 1536 1535 1534 1533 1532 1531 1530 1528
1504 1504 1504 1505 1505 1505 1505 1506 1508 1509 1511 1513 1516 1518 1520 1523 1525 1527 1528 1530 1532 1533 1534 1535 1536 1536 1536 1536 1536 1536 1536 1536 1536 1536 1536 1535 1535 1535 1534 1533 1532 1532 1531 1529
1502 1502 1503 1502 1502 1502 1503 1503 1504 1505 1507 1509 1511 1513 1516 1518 1520 1522 1524 1526 1528 1529 1530 1531 1532 1533 1533 1533 1533 1533 1534 1534 1534 1534 1534 1534 1534 1534 1534 1533 1532 1531 1530 1530
1500 1499 1499 1499 1499 1499 1500 1500 1500 1501 1503 1504 1506 1508 1510 1513 1515 1518 1520 1521 1523 1524 1525 1527 1528 1529 1529 1529 1530 1530 1531 1531 1531 1532 1532 1532 1532 1532 1532 1532 1532 1531 1530 1529
1498 1497 1496 1496 1496 1496 1496 1496 1496 1497 1498 1499 1501 1503 1505 1508 1510 1512 1514 1516 1517 1519 1521 1522 1523 1524 1525 1525 1526 1527 1527 1528 1528 1529 1529 1529 1530 1530 1530 1530 1530 1530 1530 1529
1498 1496 1495 1494 1493 1492 1491 1491 1492 1492 1493 1494 1496 1498 1499 1501 1503 1505 1508 1510 1512 1513 1515 1517 1518 1519 1520 1521 1522 1523 1524 1524 1525 1525 1526 1526 1527 1527 1528 1528 1528 1528 1528 1527
1495 1494 1492 1490 1489 1488 1487 1486 1486 1486 1487 1489 1490 1491 1492 1495 1497 1499 1502 1504 1505 1506 1508 1511 1513 1514 1515 1516 1517 1518 1519 1520 1521 1522 1522 1523 1523 1524 1524 1524 1525 1525 1525 1525
1495 1493 1490 1488 1486 1484 1482 1481 1481 1481 1481 1483 1484 1485 1486 1488 1491 1493 1495 1496 1497 1500 1503 1505 1507 1508 1510 1511 1512 1513 1515 1516 1517 1518 1519 1519 1519 1520 1520 1521 1521 1521 1522 1522
1495 1492 1489 1486 1483 1481 1479 1478 1477 1476 1476 1477 1478 1479 1480 1482 1484 1486 1488 1489 1491 1494 1497 1499 1501 1502 1504 1505 1507 1508 1509 1511 1512 1513 1514 1515 1515 1516 1516 1517 1517 1518 1518 1518
1496 1492 1489 1485 1482 1479 1477 1475 1474 1473 1472 1472 1472 1473 1475 1476 1478 1479 1480 1482 1485 1488 1490 1492 1494 1496 1498 1499 1501 1502 1504 1505 1506 1508 1509 1509 1510 1511 1512 1512 1513 1513 1514 1514
1496 1492 1489 1485 1482 1478 1475 1473 1471 1469 1468 1468 1468 1468 1469 1470 1472 1473 1474 1476 1479 1481 1483 1485 1487 1490 1492 1493 1494 1496 1498 1499 1500 1502 1503 1504 1505 1506 1506 1507 1508 1509 1509 1510
1495 1492 1489 1485 1481 1477 1474 1471 1468 1467 1465 1464 1464 1464 1465 1465 1466 1467 1469 1471 1472 1474 1476 1478 1480 1483 1485 1486 1488 1489 1491 1492 1494 1495 1497 1498 1499 1500 1501 1502 1502 1503 1504 1504
1494 1492 1489 1485 1482 1478 1475 1471 1467 1464 1462 1461 1460 1460 1461 1461 1461 1462 1463 1464 1466 1468 1469 1472 1474 1476 1478 1479 1481 1483 1484 1486 1488 1489 1490 1492 1493 1494 1495 1496 1497 1497 1498 1498
1492 1490 1487 1485 1482 1479 1475 1472 1469 1465 1462 1460 1458 1457 1457 1456 1456 1456 1457 1458 1460 1462 1463 1465 1467 1469 1471 1472 1474 1476 1478 1479 1481 1482 1484 1485 1486 1487 1488 1489 1490 1491 1492 1492
1489 1487 1484 1482 1480 1477 1475 1472 1469 1466 1463 1460 1458 1456 1454 1453 1452 1452 1452 1454 1455 1456 1458 1459 1460 1462 1464 1466 1468 1469 1471 1473 1474 1476 1477 1478 1479 1480 1482 1483 1484 1485 1486 1486